Miscellaneous Hydrologic Data Report
Issued by NWS (Baltimore/Washington) Sterling, VA
1 of 28 available versions  First Miscellaneous Hydrologic Data Report Previous Miscellaneous Hydrologic Data Report  Print this page Close this Window


000
ASUS41 KLWX 301610
RWRLWX

REGIONAL WEATHER ROUNDUP
NATIONAL WEATHER SERVICE BALTIMORE MD/WASHINGTON DC
1200 PM EDT MON MAY 30 2016

Note: "FAIR" indicates few or no clouds below 12,000 feet
with no significant weather and/or obstructions to visibility.
 TC=TEMPERATURE CELSIUS

 * =Non NWS site. Station does not report precipitation (e.g. rain,
    snow, etc.), thunder, or fog.

DCZ001-MDZ009-015-VAZ040>042-051-053>054-301700-
WASHINGTON METRO

CITY           SKY/WX    TMP DP  RH WIND       PRES   REMARKS
WASHINGTON NAT PTSUNNY   78  66  66 CALM      30.00F
DULLES         PTSUNNY   79  63  57 W5        30.01S
ANDREWS AFB    LGT RAIN  76  66  70 SE3       30.00F
FT BELVOIR     FAIR      78  68  71 S5        30.00F
QUANTICO       FAIR      75  67  76 S3        30.01F
COLLEGE PARK*  FAIR      77  64  65 CALM      29.99F
LEESBURG*      PTSUNNY   81  70  69 S5        30.02S
MANASSAS*      CLOUDY    79  66  65 CALM      30.01S

$$

MDZ006>007-011-014-301700-
BALTIMORE METRO

CITY           SKY/WX    TMP DP  RH WIND       PRES   REMARKS
BWI AIRPORT    PTSUNNY   78  64  61 SW3       29.99F
MD SCIENCE CTR   N/A     77  63  61 MISG      30.01F
MARTIN STATE   PTSUNNY   77  72  83 SE7       30.01F
ANNAPOLIS      PTSUNNY   74  68  81 SE7       30.00F
FORT MEADE*    MOSUNNY   77  63  61 SE3       30.02F

$$

MDZ012-015-019>023-301700-
MARYLAND EASTERN SHORE

CITY           SKY/WX    TMP DP  RH WIND       PRES   REMARKS
OCEAN CITY     LGT RAIN  70  69  97 S6        30.03F FOG
SALISBURY      LGT RAIN  72  69  90 S5        30.02S
BAY BRIDGE AP* PTSUNNY   73  66  78 SE3       30.00F
CAMBRIDGE*     CLOUDY    70  70 100 NW3       30.01S
EASTON*        CLOUDY    73  72  94 NE3       30.05S

$$

MDZ017>025-301700-
SOUTHERN MARYLAND

CITY           SKY/WX    TMP DP  RH WIND       PRES   REMARKS
PATUXENT RIVER CLOUDY    70  68  93 NE5       30.01F FOG
ST INIGOES     RAIN      73  71  93 E3        30.00F FOG
LEONARDTOWN*   CLOUDY    70  68  94 CALM      30.03F

$$

MDZ003>005-301700-
NORTH CENTRAL MARYLAND

CITY           SKY/WX    TMP DP  RH WIND       PRES   REMARKS
FREDERICK*     SUNNY     79  66  65 CALM      30.03F
HAGERSTOWN APT SUNNY     77  62  59 S6        30.01F
WESTMINSTER*   PTSUNNY   77  72  83 CALM      30.02F

$$

MDZ501>502-301700-
WESTERN MARYLAND

CITY           SKY/WX    TMP DP  RH WIND       PRES   REMARKS
OAKLAND*       MOSUNNY   70  61  73 W5        30.10F
CUMBERLAND*    SUNNY     79  64  61 W5        30.04F

$$

VAZ025>031-301700-
SHENANDOAH VALLEY

CITY           SKY/WX    TMP DP  RH WIND       PRES   REMARKS
WINCHESTER*    FAIR      77  63  61 CALM      30.01F
FRONT ROYAL*   FAIR      77  64  65 CALM      30.01F
LURAY*         FAIR      77  64  65 CALM      30.02F
NEW MARKET*    FAIR      76  62  60 CALM      30.01F
STAUNTON*      FAIR      73  64  73 CALM      30.05F
WAYNESBORO*    FAIR      75  62  65 CALM      30.05S

$$

WVZ021-048>050-054>055-301700-
EASTERN WEST VIRGINIA PANHANDLE

CITY           SKY/WX    TMP DP  RH WIND       PRES   REMARKS
MARTINSBURG    FAIR      77  63  61 VRB3      30.01F
PETERSBURG*    FAIR      80  63  57 CALM      30.02F

$$

VAZ036>039-050-301700-
CENTRAL FOOTHILLS

CITY           SKY/WX    TMP DP  RH WIND       PRES   REMARKS
CHARLOTTESVILL FAIR      78  61  55 CALM      30.01F
CULPEPER*      PTSUNNY   78  67  71 SW3       30.02S
ORANGE*        CLOUDY    77  66  69 NE3       30.03S
GORDONSVILLE*  CLOUDY    76  67  72 CALM      30.00F
WARRENTON*     PTSUNNY   79  62  55 SE3       30.01S

$$

VAZ055>057-301700-
NORTH AND CENTRAL PIEDMONT

CITY           SKY/WX    TMP DP  RH WIND       PRES   REMARKS
FREDERICKSBRG* CLOUDY    75  69  81 E5        30.00F
STAFFORD*      FAIR      76  65  69 E3        30.05F

$$

NCZ024-NYZ072-PAZ021-071-VAZ022-071-301700-
OTHER REGIONAL OBSERVATIONS

CITY           SKY/WX    TMP DP  RH WIND       PRES   REMARKS
NEW YORK CITY  PTSUNNY   76  67  73 VRB3      30.00F
PHILADELPHIA   CLOUDY    77  68  73 S6        29.99F
PITTSBURGH     PTSUNNY   77  63  61 CALM      30.02F
ROANOKE        FAIR      74  65  73 VRB3      30.06F
RICHMOND       CLOUDY    74  70  87 NW3       30.01S
RALEIGH        CLOUDY    79  71  76 NE6       29.99F

$$

ANZ530>537-301700-
MARINE OBSERVATIONS

STATION/POSITION TIME  TEMP    WIND        PRES
                       AIR SEA DIR/SP/G
                 (UTC) (F)     (DEG/KT/KT) (MB)
THOMAS PT LIGHT  1600   71 69  120/  2/  2 1017.3F
BALT KEY BRIDGE  1500   73     170/  2/  3 1016.0F
COVE POINT       1500   67     350/  6/  7 1017.2F
LEWISETTA        1500   72 70  100/  4/  4 1016.0F
SOLOMONS ISLAND  1500   70 67   10/  5/  6   N/A
PINEY POINT      1500          350/  4/  5   N/A

$$



Close this window


The National Weather Service prepares its forecasts and other services in collaboration with agencies like the US Geological Survey, US Bureau of Reclamation, US Army Corps of Engineers, Natural Resource Conservation Service, National Park Service, ALERT Users Group, Bureau of Indian Affairs, and many state and local emergency managers across the country. For details, please click here.

National Weather Service
(Baltimore/Washington) Sterling Weather Forecast Office
43858 Weather Service Rd.
Sterling, VA 20166
(703) 996-2200
Page last modified: 30-May-2016 4:10 PM
Disclaimer
Credits
Glossary
Privacy Policy
About Us
Career Opportunities